BAW2067 EGKK-DGAA

Flight info

Callsign BAW2067
Flight time N/A
Altitude 23000
Route BOGNA1X BOGNA L612 BENBO Y47 DRAKE/N0468F370 L151 SITET UN859 SOPIL DCT BALAN DCT EVPOK DCT NARAK DCT GAI DCT LOMRA DCT ROCAN DCT PUMAL DCT XEPLA DCT BCN DCT GARBI DCT LARPA DCT TOLSO DCT LISAS DCT MJV N859 MOGIL UB31 ZEM/N0469F380 UZ333 KAHIL UB726 GHA UM114 SIHAR/N0476F390 UA604 EREBO/N0477F400 DCT MIGNI DCT ABALA DCT IPUTA DCT TATAT DCT KILMO DCT LITEX LITEX1B
Aircraft B772/H-SDE2E3FGHIJ5LORVWXY/LB1D1

Departure

Time 2026-04-17 13:57
Airport London Gatwick Airport (EGKK)

Arrival

Time N/A
Airport Kotoka International Airport (DGAA)
Time Latitude Longitude Altitude Speed Heading
2026-04-17 13:30 51.15874 -0.16920 217 ft 0 kts 128°
2026-04-17 13:46 51.15878 -0.16930 221 ft 4 kts 128°
2026-04-17 13:47 51.15895 -0.16963 217 ft 4 kts 128°
2026-04-17 13:47 51.15910 -0.16993 223 ft 4 kts 145°
2026-04-17 13:47 51.15927 -0.17003 219 ft 4 kts 196°
2026-04-17 13:47 51.15948 -0.16981 223 ft 4 kts 228°
2026-04-17 13:48 51.15963 -0.16951 222 ft 1 kts 236°
2026-04-17 13:48 51.15963 -0.16950 222 ft 0 kts 236°
2026-04-17 13:51 51.15958 -0.16964 208 ft 4 kts 235°
2026-04-17 13:51 51.15932 -0.17012 216 ft 8 kts 224°
2026-04-17 13:51 51.15889 -0.17058 218 ft 8 kts 206°
2026-04-17 13:51 51.15847 -0.17078 210 ft 8 kts 193°
2026-04-17 13:52 51.15813 -0.17135 220 ft 8 kts 253°
2026-04-17 13:52 51.15801 -0.17216 217 ft 8 kts 257°
2026-04-17 13:52 51.15790 -0.17298 215 ft 8 kts 257°
2026-04-17 13:52 51.15780 -0.17373 212 ft 8 kts 258°
2026-04-17 13:53 51.15769 -0.17453 214 ft 7 kts 257°
2026-04-17 13:53 51.15732 -0.17500 218 ft 9 kts 181°
2026-04-17 13:53 51.15657 -0.17476 212 ft 13 kts 168°
2026-04-17 13:53 51.15565 -0.17444 217 ft 13 kts 167°
2026-04-17 13:54 51.15382 -0.17381 218 ft 13 kts 168°
2026-04-17 13:54 51.15294 -0.17350 216 ft 12 kts 166°
2026-04-17 13:55 51.15182 -0.17190 217 ft 11 kts 85°
2026-04-17 13:55 51.15197 -0.17073 214 ft 11 kts 78°
2026-04-17 13:55 51.15220 -0.16856 213 ft 9 kts 100°
2026-04-17 13:56 51.15122 -0.16825 214 ft 8 kts 236°
2026-04-17 13:56 51.15100 -0.16957 213 ft 24 kts 257°
2026-04-17 13:56 51.15055 -0.17281 218 ft 69 kts 258°
2026-04-17 13:57 51.14902 -0.18392 218 ft 135 kts 257°
2026-04-17 13:57 51.14685 -0.20081 500 ft 161 kts 255°
2026-04-17 13:57 51.14214 -0.23568 2115 ft 166 kts 254°
2026-04-17 13:58 51.13937 -0.25513 2392 ft 193 kts 253°
2026-04-17 13:58 51.13291 -0.30076 2991 ft 232 kts 255°
2026-04-17 13:58 51.12937 -0.32594 3653 ft 235 kts 255°
2026-04-17 13:59 51.12194 -0.37803 5025 ft 242 kts 252°
2026-04-17 13:59 51.11373 -0.40148 5438 ft 250 kts 224°
2026-04-17 13:59 51.09871 -0.41548 6138 ft 254 kts 201°
2026-04-17 14:00 51.08118 -0.41966 6728 ft 263 kts 181°
2026-04-17 14:00 51.06271 -0.41717 7304 ft 266 kts 178°
2026-04-17 14:00 51.04425 -0.41444 7958 ft 267 kts 179°
2026-04-17 14:00 51.02550 -0.41186 8523 ft 272 kts 179°
2026-04-17 14:01 51.00653 -0.40933 9107 ft 274 kts 179°
2026-04-17 14:01 50.98772 -0.40683 9735 ft 275 kts 179°
2026-04-17 14:01 50.96857 -0.40436 10293 ft 277 kts 179°
2026-04-17 14:01 50.94885 -0.40188 10497 ft 293 kts 179°
2026-04-17 14:02 50.92785 -0.39926 10648 ft 311 kts 179°
2026-04-17 14:02 50.90559 -0.39645 10843 ft 329 kts 179°
2026-04-17 14:02 50.88236 -0.39349 11339 ft 339 kts 179°
2026-04-17 14:02 50.85856 -0.39046 11972 ft 346 kts 179°
2026-04-17 14:03 50.83471 -0.38547 12652 ft 352 kts 168°
2026-04-17 14:03 50.81272 -0.36800 13289 ft 362 kts 150°
2026-04-17 14:03 50.79182 -0.34490 13867 ft 371 kts 151°
2026-04-17 14:03 50.77016 -0.32223 14614 ft 374 kts 152°
2026-04-17 14:04 50.74839 -0.29980 15419 ft 375 kts 152°
2026-04-17 14:04 50.72638 -0.27716 16154 ft 378 kts 152°
2026-04-17 14:04 50.70424 -0.25440 16813 ft 383 kts 152°
2026-04-17 14:04 50.68175 -0.23106 17489 ft 387 kts 152°
2026-04-17 14:05 50.65920 -0.20743 18155 ft 391 kts 152°
2026-04-17 14:05 50.63649 -0.18356 18749 ft 396 kts 152°
2026-04-17 14:05 50.61388 -0.15818 19234 ft 403 kts 145°
2026-04-17 14:05 50.59386 -0.12651 19760 ft 414 kts 134°
2026-04-17 14:06 50.57755 -0.08930 20335 ft 422 kts 125°
2026-04-17 14:06 50.56333 -0.04844 20908 ft 426 kts 122°
2026-04-17 14:06 50.54985 -0.00665 21437 ft 430 kts 121°
2026-04-17 14:06 50.53642 0.03565 21933 ft 434 kts 121°
2026-04-17 14:07 50.52282 0.07825 22416 ft 436 kts 123°
2026-04-17 14:07 50.50658 0.11833 22860 ft 434 kts 133°
2026-04-17 14:07 50.48649 0.15258 23365 ft 430 kts 144°
2026-04-17 14:07 50.46255 0.18110 23885 ft 424 kts 154°
2026-04-17 14:08 50.43680 0.20151 24323 ft 418 kts 166°
2026-04-17 14:08 50.40868 0.21043 24703 ft 409 kts 183°
2026-04-17 14:08 50.38058 0.20628 25102 ft 405 kts 196°
2026-04-17 14:08 50.35412 0.19201 25521 ft 400 kts 208°
2026-04-17 14:09 50.32900 0.17273 25905 ft 403 kts 209°
2026-04-17 14:09 50.30382 0.15308 26314 ft 406 kts 208°
2026-04-17 14:09 50.27841 0.13345 26758 ft 408 kts 208°
2026-04-17 14:09 50.25278 0.11393 27204 ft 410 kts 208°
2026-04-17 14:10 50.22699 0.09452 27635 ft 412 kts 208°
2026-04-17 14:10 50.20109 0.07515 28053 ft 415 kts 207°
2026-04-17 14:10 50.17492 0.05566 28372 ft 419 kts 207°
2026-04-17 14:10 50.14845 0.03598 28665 ft 423 kts 207°
2026-04-17 14:11 50.12085 0.01986 28944 ft 429 kts 196°
2026-04-17 14:11 50.09144 0.01365 29325 ft 436 kts 186°
2026-04-17 14:11 50.06102 0.01495 29767 ft 441 kts 177°
2026-04-17 14:11 50.03083 0.02494 30123 ft 447 kts 169°
2026-04-17 14:12 50.00064 0.03757 30399 ft 450 kts 169°
2026-04-17 14:12 49.97025 0.04998 30683 ft 452 kts 171°